GW1211 Weather Reports


time (UTC)temp
C
wind
direction
speed
KPH
gust
KPH
rain 1hr
cm
rain 24hr
cm
rain mn
cm
humidity
%
barometer
mb
20260506223053 12 255 9.7 11.3 0.00 0.00 0.00 89 1023.3
20260506222550 12 259 6.4 6.4 0.00 0.00 0.00 89 1023.3
20260506222046 12 254 9.7 12.9 0.00 0.00 0.00 88 1023.5
20260506221544 12 259 12.9 16.1 0.00 0.00 0.00 88 1023.4
20260506221042 12 267 12.9 12.9 0.00 0.00 0.00 88 1023.5
20260506220537 12 242 12.9 14.5 0.00 0.00 0.00 87 1023.3
20260506220033 12 248 11.3 12.9 0.00 0.00 0.00 87 1023.4
20260506215531 12 248 14.5 14.5 0.00 0.00 0.00 87 1023.4
20260506215026 12 246 9.7 12.9 0.00 0.00 0.00 87 1023.3
20260506214523 12 265 9.7 12.9 0.00 0.00 0.00 87 1023.4
20260506214020 12 258 9.7 12.9 0.00 0.00 0.00 86 1023.3
20260506213519 12 275 11.3 12.9 0.00 0.00 0.00 86 1023.2
20260506213015 12 256 8.0 11.3 0.00 0.00 0.00 86 1023.3
20260506212512 12 258 6.4 9.7 0.00 0.00 0.00 85 1023.3
20260506212007 12 262 11.3 12.9 0.00 0.00 0.00 86 1023.3
20260506211503 12 270 11.3 12.9 0.00 0.00 0.00 85 1023.4
20260506211000 12 274 12.9 14.5 0.00 0.00 0.00 85 1023.2
20260506210456 12 245 12.9 14.5 0.00 0.00 0.00 86 1023.4
20260506205954 12 282 11.3 12.9 0.00 0.00 0.00 86 1023.2
20260506205450 12 269 11.3 12.9 0.00 0.00 0.00 86 1023.3
20260506204946 13 266 11.3 14.5 0.00 0.00 0.00 85 1023.1
20260506204444 13 274 11.3 12.9 0.00 0.00 0.00 86 1023.3
20260506203941 13 258 6.4 9.7 0.00 0.00 0.00 86 1023.3
20260506203438 12 280 6.4 9.7 0.00 0.00 0.00 87 1023.2
20260506202935 12 274 9.7 12.9 0.00 0.00 0.00 87 1023.2
20260506202432 12 269 11.3 12.9 0.00 0.00 0.00 87 1023.2
20260506201928 12 258 11.3 12.9 0.00 0.00 0.00 87 1023.1
20260506201426 12 253 9.7 11.3 0.00 0.00 0.00 88 1023.0
20260506200922 12 237 8.0 9.7 0.00 0.00 0.00 88 1023.0
20260506200419 12 249 11.3 12.9 0.00 0.00 0.00 88 1023.2
20260506195915 12 239 8.0 11.3 0.00 0.00 0.00 89 1023.1
20260506195413 12 281 9.7 11.3 0.00 0.00 0.00 89 1023.1
20260506194909 12 280 9.7 11.3 0.00 0.00 0.00 88 1023.0
20260506194406 12 244 3.2 4.8 0.00 0.00 0.00 89 1022.9
20260506193903 11 242 6.4 11.3 0.00 0.00 0.00 89 1023.2
20260506193400 11 230 6.4 6.4 0.00 0.00 0.00 90 1022.9
20260506192856 11 266 3.2 3.2 0.00 0.00 0.00 90 1022.9
20260506192353 11 266 4.8 4.8 0.00 0.00 0.00 89 1023.0
20260506191850 11 253 8.0 11.3 0.00 0.00 0.00 90 1022.8
20260506191347 11 252 9.7 12.9 0.00 0.00 0.00 90 1022.9
20260506190844 11 280 6.4 9.7 0.00 0.00 0.00 89 1022.9
20260506190340 11 276 11.3 12.9 0.00 0.00 0.00 89 1022.5
20260506185837 11 282 8.0 11.3 0.00 0.00 0.00 89 1022.7
20260506185334 11 277 11.3 14.5 0.00 0.00 0.00 89 1022.7
20260506184831 11 268 6.4 9.7 0.00 0.00 0.00 89 1022.6
20260506184328 11 242 6.4 9.7 0.00 0.00 0.00 89 1022.4
20260506183826 11 249 3.2 4.8 0.00 0.00 0.00 89 1022.4
20260506183320 11 248 6.4 9.7 0.00 0.00 0.00 89 1022.4
20260506182818 11 253 6.4 9.7 0.00 0.00 0.00 88 1022.6
20260506182315 11 272 4.8 4.8 0.00 0.00 0.00 88 1022.4
20260506181813 11 262 6.4 6.4 0.00 0.00 0.00 88 1022.4
20260506181310 11 270 4.8 4.8 0.00 0.00 0.00 88 1022.5
20260506180808 11 284 0.0 0.0 0.00 0.00 0.00 88 1022.6
20260506180303 11 259 0.0 1.6 0.00 0.00 0.00 87 1022.5
20260506175800 11 260 8.0 11.3 0.00 0.00 0.00 87 1022.6
20260506175257 11 270 9.7 12.9 0.00 0.00 0.00 87 1022.6
20260506174754 11 277 8.0 11.3 0.00 0.00 0.00 86 1022.5
20260506174251 11 263 8.0 12.9 0.00 0.00 0.00 86 1022.5
20260506173749 11 239 8.0 12.9 0.00 0.00 0.00 85 1022.5
20260506173245 11 269 9.7 11.3 0.00 0.00 0.00 85 1022.3
20260506172742 11 248 6.4 9.7 0.00 0.00 0.00 85 1022.4
20260506172239 11 258 4.8 4.8 0.00 0.00 0.00 85 1022.2
20260506171737 11 252 8.0 9.7 0.00 0.00 0.00 84 1022.2
20260506171233 11 275 6.4 11.3 0.00 0.00 0.00 84 1022.1
20260506170731 11 248 8.0 11.3 0.00 0.00 0.00 83 1022.2
20260506170227 12 267 8.0 12.9 0.00 0.00 0.00 83 1022.3
20260506165726 12 281 6.4 9.7 0.00 0.00 0.00 82 1022.2
20260506165222 11 247 4.8 4.8 0.00 0.00 0.00 82 1022.1
20260506164720 12 235 6.4 6.4 0.00 0.00 0.00 82 1021.9
20260506164217 11 249 0.0 0.0 0.00 0.00 0.00 82 1021.9
20260506163713 11 238 0.0 0.0 0.00 0.00 0.00 82 1021.9
20260506163208 11 254 3.2 4.8 0.00 0.00 0.00 82 1021.8
20260506162705 11 246 4.8 6.4 0.00 0.00 0.00 82 1021.9
20260506162202 11 258 6.4 6.4 0.00 0.00 0.00 82 1022.0
20260506161659 11 283 0.0 0.0 0.00 0.00 0.00 82 1022.0
20260506161156 11 275 3.2 4.8 0.00 0.00 0.00 82 1021.9
20260506160654 11 283 4.8 6.4 0.00 0.00 0.00 82 1021.7
20260506160150 11 294 3.2 4.8 0.00 0.00 0.00 82 1022.0
20260506155649 11 283 4.8 6.4 0.00 0.00 0.00 82 1021.9
20260506155146 11 303 8.0 9.7 0.00 0.00 0.00 82 1021.7
20260506153248 11 282 4.8 6.4 0.00 0.00 0.00 82 1021.6
20260506152744 11 280 6.4 9.7 0.00 0.00 0.00 82 1021.7
20260506152242 11 269 6.4 9.7 0.00 0.00 0.00 82 1021.6
20260506151741 11 235 0.0 0.0 0.00 0.00 0.00 82 1021.7
20260506151237 11 251 6.4 6.4 0.00 0.00 0.00 82 1021.4
20260506150733 11 269 3.2 4.8 0.00 0.00 0.00 82 1021.5
20260506150231 11 255 0.0 0.0 0.00 0.00 0.00 82 1021.4
20260506145728 11 271 0.0 0.0 0.00 0.00 0.00 82 1021.3
20260506145224 11 259 0.0 0.0 0.00 0.00 0.00 82 1021.3
20260506144722 11 257 0.0 0.0 0.00 0.00 0.00 82 1021.2
20260506144219 11 248 0.0 0.0 0.00 0.00 0.00 82 1021.2
20260506143716 11 240 6.4 9.7 0.00 0.00 0.00 82 1021.2
20260506143214 11 240 4.8 9.7 0.00 0.00 0.00 82 1021.0
20260506142712 11 239 0.0 0.0 0.00 0.00 0.00 82 1021.0
20260506142210 11 248 4.8 4.8 0.00 0.00 0.00 83 1021.0
20260506141707 11 260 0.0 0.0 0.00 0.00 0.00 82 1021.3
20260506141205 11 258 1.6 3.2 0.00 0.00 0.00 82 1020.9
20260506140703 11 241 0.0 0.0 0.00 0.00 0.00 82 1021.1
20260506140159 11 263 3.2 4.8 0.00 0.00 0.00 82 1021.0
20260506135656 11 273 0.0 0.0 0.00 0.00 0.00 83 1021.0
20260506135153 11 307 0.0 0.0 0.00 0.00 0.00 83 1020.9
20260506134649 11 311 0.0 0.0 0.00 0.00 0.00 83 1020.6
20260506134145 11 267 0.0 0.0 0.00 0.00 0.00 83 1020.5
20260506133643 11 278 0.0 0.0 0.00 0.00 0.00 83 1020.5
20260506133139 11 262 0.0 0.0 0.00 0.00 0.00 83 1020.6
20260506132637 11 258 0.0 0.0 0.00 0.00 0.00 83 1020.7
20260506132133 11 266 0.0 0.0 0.00 0.00 0.00 83 1020.5
20260506131631 11 214 0.0 0.0 0.00 0.00 0.00 83 1020.6
20260506131127 11 188 0.0 0.0 0.00 0.00 0.00 84 1020.2
20260506105130 11 288 0.0 0.0 0.00 0.00 0.00 84 1020.0
20260506104628 11 288 0.0 0.0 0.00 0.00 0.00 84 1020.0
20260506104125 11 288 0.0 0.0 0.00 0.00 0.00 84 1020.0
20260506103623 11 291 0.0 0.0 0.00 0.00 0.00 84 1019.8
20260506103119 11 286 0.0 0.0 0.00 0.00 0.00 84 1019.9
20260506102618 11 294 0.0 0.0 0.00 0.00 0.00 84 1019.8
20260506102115 11 305 0.0 0.0 0.00 0.00 0.00 84 1019.8
20260506101611 11 273 0.0 0.0 0.00 0.00 0.00 84 1019.7
20260506095649 11 265 0.0 0.0 0.00 0.00 0.00 84 1019.8
20260506095145 11 265 0.0 0.0 0.00 0.00 0.00 84 1019.8
20260506094643 11 273 0.0 0.0 0.00 0.00 0.00 84 1019.9
20260506094141 11 261 0.0 0.0 0.00 0.00 0.00 84 1019.7
20260506093639 11 283 0.0 0.0 0.00 0.00 0.00 84 1020.0
20260506093136 11 321 0.0 0.0 0.00 0.00 0.00 84 1019.8
20260506092634 11 296 0.0 0.0 0.00 0.00 0.00 84 1019.8
20260506092131 11 283 0.0 0.0 0.00 0.00 0.00 84 1019.7
20260506091629 11 323 0.0 0.0 0.00 0.00 0.00 84 1019.7
20260506091126 11 295 0.0 0.0 0.00 0.00 0.00 84 1019.7
20260506090624 11 309 0.0 0.0 0.00 0.00 0.00 84 1019.7
20260506090120 11 270 0.0 0.0 0.00 0.00 0.00 84 1019.6
20260506085617 11 258 0.0 0.0 0.00 0.00 0.00 84 1019.6
20260506085113 11 248 0.0 0.0 0.00 0.00 0.00 84 1019.6
20260506084610 11 260 0.0 0.0 0.00 0.00 0.00 84 1019.5
20260506084106 11 290 0.0 0.0 0.00 0.00 0.00 84 1019.4
20260506083604 11 287 0.0 0.0 0.00 0.00 0.00 84 1019.6
20260506083101 11 305 0.0 0.0 0.00 0.00 0.00 84 1019.4
20260506082558 11 305 0.0 0.0 0.00 0.00 0.00 84 1019.4
20260506082053 11 283 0.0 0.0 0.00 0.00 0.00 84 1019.4
20260506081552 11 307 0.0 0.0 0.00 0.00 0.00 84 1019.4
20260506081049 11 301 1.6 3.2 0.00 0.00 0.00 84 1019.3
20260506080546 11 310 0.0 0.0 0.00 0.00 0.00 84 1019.3
20260506073027 11 293 0.0 0.0 0.00 0.00 0.00 84 1019.1
20260506072524 11 296 0.0 0.0 0.00 0.00 0.00 84 1019.0
20260506072022 11 299 0.0 0.0 0.00 0.00 0.00 84 1018.9
20260506071519 11 270 0.0 0.0 0.00 0.00 0.00 84 1018.9
20260506071016 11 293 0.0 0.0 0.00 0.00 0.00 84 1018.8
20260506070514 11 274 0.0 0.0 0.00 0.00 0.00 84 1018.9
20260506062451 12 284 4.8 4.8 0.00 0.00 0.00 84 1018.8
20260506061947 11 304 0.0 0.0 0.00 0.00 0.00 84 1018.8
20260506061443 11 307 6.4 9.7 0.00 0.00 0.00 84 1018.8
20260506060942 11 326 0.0 3.2 0.00 0.00 0.00 84 1018.8
20260506060440 12 293 6.4 6.4 0.00 0.00 0.00 84 1018.8
20260506051412 12 293 8.0 9.7 0.00 0.00 0.00 83 1018.8
20260506050908 12 303 6.4 9.7 0.00 0.00 0.00 83 1018.7
20260506050406 12 300 8.0 9.7 0.00 0.00 0.00 83 1018.7
20260506044856 12 275 0.0 0.0 0.00 0.00 0.00 83 1018.8
20260506044354 12 278 6.4 6.4 0.00 0.00 0.00 83 1018.5
20260506043851 12 287 4.8 6.4 0.00 0.00 0.00 83 1018.6
20260506043348 12 273 6.4 6.4 0.00 0.00 0.00 83 1018.6
20260506042846 12 280 4.8 6.4 0.00 0.00 0.00 83 1018.6
20260506042345 12 268 3.2 3.2 0.00 0.00 0.00 83 1018.5
20260506041844 12 283 3.2 4.8 0.00 0.00 0.00 83 1018.4
20260506041340 12 267 0.0 0.0 0.00 0.00 0.00 83 1018.3
20260506040837 12 280 0.0 0.0 0.00 0.00 0.00 83 1018.2
20260506040335 12 301 0.0 0.0 0.00 0.00 0.00 83 1018.3
20260506035831 12 283 6.4 9.7 0.00 0.00 0.00 82 1017.9
20260506035328 12 273 3.2 3.2 0.00 0.00 0.00 82 1018.0
20260506034825 12 266 6.4 6.4 0.00 0.00 0.00 82 1017.8
20260506034323 12 280 0.0 0.0 0.00 0.00 0.00 82 1018.0
20260506033819 12 282 3.2 4.8 0.00 0.00 0.00 83 1018.0
20260506033316 12 273 0.0 0.0 0.00 0.00 0.00 83 1017.7
20260506032813 12 294 0.0 0.0 0.00 0.00 0.00 82 1017.8
20260506032310 12 274 0.0 0.0 0.00 0.00 0.00 83 1018.0
20260506031807 12 290 0.0 0.0 0.00 0.00 0.00 83 1018.0
20260506031304 12 265 0.0 0.0 0.00 0.00 0.00 83 1018.1
20260506030802 12 295 0.0 0.0 0.00 0.00 0.00 83 1017.9
20260506030300 12 291 0.0 0.0 0.00 0.00 0.00 83 1017.8
20260506025756 12 283 0.0 0.0 0.00 0.00 0.00 83 1017.8
20260506025253 12 297 0.0 0.0 0.00 0.00 0.00 83 1017.9
20260506024750 12 272 0.0 0.0 0.00 0.00 0.00 83 1017.8
20260506024246 12 292 0.0 0.0 0.00 0.00 0.00 83 1017.6
20260506023742 12 281 0.0 0.0 0.00 0.00 0.00 83 1017.7
20260506023240 12 285 0.0 0.0 0.00 0.00 0.00 83 1017.8
20260506022736 12 293 0.0 0.0 0.00 0.00 0.00 83 1017.6
20260506022235 13 308 0.0 0.0 0.00 0.00 0.00 83 1017.8
20260506021732 12 305 0.0 0.0 0.00 0.00 0.00 83 1017.7
20260506021229 13 300 0.0 0.0 0.00 0.00 0.00 83 1017.7
20260506020725 13 293 0.0 0.0 0.00 0.00 0.00 83 1017.7
20260506020224 13 292 0.0 0.0 0.00 0.00 0.00 83 1017.8
20260506015721 13 297 0.0 0.0 0.00 0.00 0.00 83 1017.6
20260506015218 13 320 0.0 0.0 0.00 0.00 0.00 83 1017.7
20260506014715 13 302 4.8 4.8 0.00 0.00 0.00 83 1017.8
20260506014211 13 305 4.8 4.8 0.00 0.00 0.00 83 1017.7
20260506013709 13 302 6.4 9.7 0.00 0.00 0.00 82 1017.8
20260506013206 13 301 4.8 4.8 0.00 0.00 0.00 83 1017.7
20260506012702 13 302 4.8 6.4 0.00 0.00 0.00 83 1017.8
20260506012159 13 295 6.4 9.7 0.00 0.00 0.00 82 1017.6
20260506011656 13 302 4.8 6.4 0.00 0.00 0.00 82 1017.7
20260506011152 13 292 6.4 6.4 0.00 0.00 0.00 82 1017.7
20260506010651 13 287 8.0 11.3 0.00 0.00 0.00 82 1017.6
20260506010148 13 304 6.4 6.4 0.00 0.00 0.00 82 1017.8
20260506005645 13 318 6.4 9.7 0.00 0.00 0.00 82 1017.7
20260506005142 13 295 6.4 9.7 0.00 0.00 0.00 81 1017.8
20260506004638 13 290 8.0 9.7 0.00 0.00 0.00 82 1017.8
20260506004135 13 307 4.8 6.4 0.00 0.00 0.00 81 1017.6
20260506003631 13 292 3.2 3.2 0.00 0.00 0.00 81 1017.7
20260506003128 13 266 8.0 9.7 0.00 0.00 0.00 81 1017.7
20260506002624 14 284 6.4 9.7 0.00 0.00 0.00 81 1017.8
20260506002120 13 295 6.4 9.7 0.00 0.00 0.00 82 1017.7
20260506001616 13 299 6.4 6.4 0.00 0.00 0.00 81 1017.7
20260506001114 13 293 3.2 4.8 0.00 0.00 0.00 81 1017.9
20260506000611 13 301 6.4 6.4 0.00 0.00 0.00 81 1017.8
20260506000108 13 297 4.8 6.4 0.00 0.00 0.00 81 1017.8
20260505235606 13 293 4.8 4.8 0.00 0.00 0.00 82 1017.7
20260505235103 13 283 4.8 6.4 0.00 0.00 0.00 81 1018.0
20260505234600 13 292 6.4 6.4 0.00 0.00 0.00 81 1017.8
20260505234056 13 270 6.4 6.4 0.00 0.00 0.00 82 1018.1
20260505233554 13 283 8.0 11.3 0.00 0.00 0.00 81 1018.0
20260505233051 13 269 3.2 3.2 0.00 0.00 0.00 81 1018.0
20260505232549 13 276 0.0 0.0 0.00 0.00 0.00 81 1017.9
20260505232046 13 287 0.0 0.0 0.00 0.00 0.00 81 1018.1
20260505231543 14 286 0.0 0.0 0.00 0.00 0.00 80 1018.2
20260505231042 15 301 0.0 0.0 0.00 0.00 0.00 80 1018.0
20260505230539 14 288 0.0 0.0 0.00 0.00 0.00 80 1018.2
20260505230035 14 267 0.0 0.0 0.00 0.00 0.00 80 1018.1
20260505225532 14 269 0.0 0.0 0.00 0.00 0.00 80 1018.2
20260505225028 14 269 0.0 0.0 0.00 0.00 0.00 80 1018.3
20260505224525 14 267 0.0 0.0 0.00 0.00 0.00 81 1018.2
20260505224022 14 255 0.0 0.0 0.00 0.00 0.00 81 1018.3
20260505223519 14 246 0.0 0.0 0.00 0.00 0.00 80 1018.3